Overview Statistics Trail Chart Weather Telemetry Raw packets
 

This is the latest recevied weather packets stored in our database for station/object OE6ACM-10. If no packets are shown the sender has not sent any weather packets the latest 10 day(s).

<< 37 38 39 40 41 42 43 >>
Time Temp. Humidity Pressure Rain* Wind** Luminosity Snow
1788436286 28.89° C 100% 931.5 hPa - - - -
1788435986 29.44° C 100% 931.4 hPa - - - -
1788435686 29.44° C 100% 931.4 hPa - - - -
1788435386 30° C 100% 931.4 hPa - - - -
1788435086 28.89° C 100% 931.5 hPa - - - -
1788434786 28.89° C 100% 931.4 hPa - - - -
1788434486 28.33° C 100% 931.4 hPa - - - -
1788434186 28.33° C 100% 931.5 hPa - - - -
1788433886 28.33° C 100% 931.4 hPa - - - -
1788433586 28.33° C 100% 931.5 hPa - - - -
1788433286 28.33° C 100% 931.3 hPa - - - -
1788432986 27.22° C 100% 931.5 hPa - - - -
1788432686 27.22° C 100% 931.3 hPa - - - -
1788432386 26.67° C 100% 931.5 hPa - - - -
1788432086 26.11° C 100% 931.4 hPa - - - -
1788431786 26.11° C 100% 931.7 hPa - - - -
1788431486 25.56° C 100% 931.8 hPa - - - -
1788431186 25.56° C 100% 931.8 hPa - - - -
1788430886 25.56° C 100% 931.9 hPa - - - -
1788430586 25.56° C 100% 931.9 hPa - - - -
1788430286 25.56° C 100% 932 hPa - - - -
1788429986 25° C 100% 932 hPa - - - -
1788429686 25° C 100% 932 hPa - - - -
1788429386 25° C 100% 932.1 hPa - - - -
1788429086 24.44° C 100% 932 hPa - - - -

* Rain since midnight (hover to see other rain measurements)
** Current wind speed in m/s (hover to see current wind gust speed)